Starlink 4415

operational
NORAD ID: 53465 Int'l Des: 2022-099 Owner: SPXS Country: US Constellation: starlink
LEOCIRCULARRETROGRADESSO

About Starlink 4415

Description loading...

Live Position

Loading 3D Globe...

Upcoming Passes

Altitude History

Altitude vs Time

uPlot chart will show altitude changes over time

Two-Line Element Set

1 53465U 22099A 25304.82609583 .00000523 00000-0 40467-4 0 9995
2 53465 97.6036 64.1956 0001117 86.0633 274.0721 15.05649876176641
Epoch: Oct 31, 2025 • Age: 18 hours

Current Status

Altitude 555.8 km
Velocity 7.59 km/s
Sub-Earth Point 45.19°N, 172.56°E
Launch Date Aug 12, 2022
Age 3.2 years
Type internet

Technical Details

Classification Payload
Mass 300.00 kg
Dry Mass 275.00 kg
Total Mass 300.00 kg
Length 0.20 m
Diameter 2.80 m
Span 9.00 m
Shape Box + pan
Manufacturer SPXS
Bus Type Starlink
Phase Status In Orbit
Owner/State SPXS/US

Large Constellations

Loading constellations...